Time,TemperatureF,DewpointF,PressureIn,WindDirection,WindDirectionDegrees,WindSpeedMPH,WindSpeedGustMPH,Humidity,HourlyPrecipIn,Conditions,Clouds,dailyrainin,SoftwareType,DateUTC
2013-02-21 00:01:00,48.0,42.0,30.09,SSW,194,0.0,0.0,80,0.00,,,0.00,,2013-02-21 08:01:00,
2013-02-21 00:11:00,47.0,41.0,30.09,SSW,194,0.0,0.0,81,0.00,,,0.00,,2013-02-21 08:11:00,
2013-02-21 00:21:00,47.0,41.0,30.09,SSW,194,0.0,0.0,81,0.00,,,0.00,,2013-02-21 08:21:00,
2013-02-21 00:31:00,47.0,41.0,30.09,SSW,194,0.0,0.0,81,0.00,,,0.00,,2013-02-21 08:31:00,
2013-02-21 00:41:00,47.0,42.0,30.10,SSW,194,0.0,0.0,82,0.00,,,0.00,,2013-02-21 08:41:00,
2013-02-21 00:51:00,47.0,42.0,30.10,SSW,194,0.0,0.0,82,0.00,,,0.00,,2013-02-21 08:51:00,
2013-02-21 01:01:00,47.0,42.0,30.10,SSW,194,0.0,0.0,82,0.00,,,0.00,,2013-02-21 09:01:00,
2013-02-21 01:11:00,46.0,41.0,30.09,SSW,194,0.0,0.0,82,0.00,,,0.00,,2013-02-21 09:11:00,
2013-02-21 01:22:00,46.0,41.0,30.09,SSW,194,0.0,0.0,82,0.00,,,0.00,,2013-02-21 09:22:00,
2013-02-21 01:31:00,46.0,41.0,30.10,SSW,194,0.0,0.0,82,0.00,,,0.00,,2013-02-21 09:31:00,
2013-02-21 01:41:00,46.0,41.0,30.10,SSW,194,0.0,0.0,82,0.00,,,0.00,,2013-02-21 09:41:00,
2013-02-21 01:51:00,46.0,41.0,30.10,SSW,194,0.0,0.0,82,0.00,,,0.00,,2013-02-21 09:51:00,
2013-02-21 02:01:00,46.0,41.0,30.10,SSW,194,0.0,0.0,82,0.00,,,0.00,,2013-02-21 10:01:00,
2013-02-21 02:11:00,46.0,41.0,30.10,SSW,194,0.0,0.0,82,0.00,,,0.00,,2013-02-21 10:11:00,
2013-02-21 02:21:00,46.0,41.0,30.10,SSW,194,0.0,0.0,83,0.00,,,0.00,,2013-02-21 10:21:00,
2013-02-21 02:31:00,46.0,41.0,30.10,SSW,194,0.0,0.0,83,0.00,,,0.00,,2013-02-21 10:31:00,
2013-02-21 02:41:00,45.0,40.0,30.10,SSW,194,0.0,0.0,83,0.00,,,0.00,,2013-02-21 10:41:00,
2013-02-21 02:51:00,45.0,40.0,30.10,SSW,194,0.0,0.0,83,0.00,,,0.00,,2013-02-21 10:51:00,
2013-02-21 03:00:00,45.0,40.0,30.10,SSW,194,0.0,0.0,84,0.00,,,0.00,,2013-02-21 11:00:00,
2013-02-21 03:10:00,45.0,40.0,30.10,SSW,194,0.0,0.0,84,0.00,,,0.00,,2013-02-21 11:10:00,
2013-02-21 03:20:00,45.0,40.0,30.09,SSW,194,0.0,0.0,84,0.00,,,0.00,,2013-02-21 11:20:00,
2013-02-21 03:31:00,45.0,40.0,30.09,SSW,194,0.0,0.0,84,0.00,,,0.00,,2013-02-21 11:31:00,
2013-02-21 03:41:00,45.0,40.0,30.09,SSW,194,0.0,0.0,83,0.00,,,0.00,,2013-02-21 11:41:00,
2013-02-21 03:51:00,45.0,40.0,30.09,SSW,194,0.0,0.0,83,0.00,,,0.00,,2013-02-21 11:51:00,
2013-02-21 04:01:00,45.0,40.0,30.09,SSW,194,0.0,0.0,83,0.00,,,0.00,,2013-02-21 12:01:00,
2013-02-21 04:11:00,44.0,39.0,30.09,SSW,194,0.0,0.0,83,0.00,,,0.00,,2013-02-21 12:11:00,
2013-02-21 04:21:00,44.0,39.0,30.09,SSW,194,0.0,0.0,83,0.00,,,0.00,,2013-02-21 12:21:00,
2013-02-21 04:32:00,44.0,39.0,30.09,SSW,194,0.0,0.0,83,0.00,,,0.00,,2013-02-21 12:32:00,
2013-02-21 04:42:00,44.0,39.0,30.09,SSW,194,0.0,0.0,84,0.00,,,0.00,,2013-02-21 12:42:00,
2013-02-21 04:52:00,44.0,39.0,30.09,SSW,194,0.0,0.0,84,0.00,,,0.00,,2013-02-21 12:52:00,
2013-02-21 05:01:00,44.0,39.0,30.08,SSW,194,0.0,0.0,84,0.00,,,0.00,,2013-02-21 13:01:00,
2013-02-21 05:12:00,44.0,39.0,30.08,SSW,194,0.0,0.0,84,0.00,,,0.00,,2013-02-21 13:12:00,
2013-02-21 05:22:00,44.0,39.0,30.08,SSW,194,0.0,0.0,84,0.00,,,0.00,,2013-02-21 13:22:00,
2013-02-21 05:31:00,44.0,39.0,30.07,SSW,194,0.0,0.0,84,0.00,,,0.00,,2013-02-21 13:31:00,
2013-02-21 05:41:00,43.0,39.0,30.07,SSW,194,0.0,0.0,85,0.00,,,0.00,,2013-02-21 13:41:00,
2013-02-21 05:51:00,43.0,39.0,30.07,SSW,194,0.0,0.0,85,0.00,,,0.00,,2013-02-21 13:51:00,
2013-02-21 06:02:00,43.0,39.0,30.07,SSW,194,0.0,0.0,85,0.00,,,0.00,,2013-02-21 14:02:00,
2013-02-21 06:11:00,43.0,39.0,30.07,SSW,194,0.0,0.0,85,0.00,,,0.00,,2013-02-21 14:11:00,
2013-02-21 06:21:00,43.0,39.0,30.08,SSW,194,0.0,0.0,85,0.00,,,0.00,,2013-02-21 14:21:00,
2013-02-21 06:31:00,43.0,39.0,30.07,SSW,194,0.0,0.0,85,0.00,,,0.00,,2013-02-21 14:31:00,
2013-02-21 06:41:00,43.0,39.0,30.07,SSW,194,0.0,0.0,85,0.00,,,0.00,,2013-02-21 14:41:00,
2013-02-21 06:52:00,43.0,39.0,30.07,SSW,194,0.0,0.0,85,0.00,,,0.00,,2013-02-21 14:52:00,
2013-02-21 07:01:00,43.0,39.0,30.07,SSW,194,0.0,0.0,85,0.00,,,0.00,,2013-02-21 15:01:00,
2013-02-21 07:11:00,43.0,39.0,30.07,SSW,194,0.0,0.0,85,0.00,,,0.00,,2013-02-21 15:11:00,
2013-02-21 07:30:00,42.0,38.0,30.09,SSW,194,0.0,0.0,86,0.00,,,0.00,,2013-02-21 15:30:00,
2013-02-21 07:42:00,42.0,38.0,30.09,SSW,194,0.0,0.0,86,0.00,,,0.00,,2013-02-21 15:42:00,
2013-02-21 07:52:00,42.0,38.0,30.09,SSW,194,0.0,0.0,86,0.00,,,0.00,,2013-02-21 15:52:00,
2013-02-21 08:01:00,42.0,38.0,30.09,SSW,194,0.0,0.0,86,0.00,,,0.00,,2013-02-21 16:01:00,
2013-02-21 08:12:00,42.0,38.0,30.09,SSW,194,0.0,0.0,86,0.00,,,0.00,,2013-02-21 16:12:00,
2013-02-21 08:21:00,42.0,38.0,30.09,SSW,194,0.0,0.0,86,0.00,,,0.00,,2013-02-21 16:21:00,
2013-02-21 09:32:00,47.0,42.0,30.11,NNE,14,3.0,7.0,83,0.00,,,0.00,,2013-02-21 17:32:00,
2013-02-21 09:42:00,48.0,42.0,30.11,North,359,5.0,5.0,80,0.00,,,0.00,,2013-02-21 17:42:00,
2013-02-21 09:52:00,48.0,42.0,30.11,North,359,5.0,5.0,80,0.00,,,0.00,,2013-02-21 17:52:00,
2013-02-21 10:01:00,48.0,42.0,30.11,NW,307,2.0,0.0,79,0.00,,,0.00,,2013-02-21 18:01:00,
2013-02-21 10:11:00,49.0,42.0,30.11,NNW,338,1.0,0.0,76,0.00,,,0.00,,2013-02-21 18:11:00,
2013-02-21 10:21:00,49.0,42.0,30.11,NNW,338,1.0,0.0,76,0.00,,,0.00,,2013-02-21 18:21:00,
2013-02-21 10:31:00,50.0,42.0,30.11,NNW,338,1.0,0.0,74,0.00,,,0.00,,2013-02-21 18:31:00,
2013-02-21 10:42:00,50.0,42.0,30.11,NNW,338,1.0,0.0,74,0.00,,,0.00,,2013-02-21 18:42:00,
2013-02-21 10:51:00,51.0,43.0,30.11,WSW,248,0.0,0.0,74,0.00,,,0.00,,2013-02-21 18:51:00,
2013-02-21 11:01:00,52.0,43.0,30.12,WSW,257,3.0,5.0,71,0.00,,,0.00,,2013-02-21 19:01:00,
2013-02-21 11:11:00,52.0,43.0,30.12,WSW,257,3.0,5.0,71,0.00,,,0.00,,2013-02-21 19:11:00,
2013-02-21 11:21:00,52.0,43.0,30.12,North,359,0.0,0.0,70,0.00,,,0.00,,2013-02-21 19:21:00,
2013-02-21 11:31:00,53.0,43.0,30.12,WSW,256,2.0,0.0,69,0.00,,,0.00,,2013-02-21 19:31:00,
2013-02-21 11:41:00,53.0,43.0,30.12,WSW,256,2.0,0.0,69,0.00,,,0.00,,2013-02-21 19:41:00,
2013-02-21 11:51:00,53.0,43.0,30.12,SW,236,1.0,6.0,68,0.00,,,0.00,,2013-02-21 19:51:00,
2013-02-21 12:01:00,54.0,43.0,30.12,SSW,212,4.0,0.0,66,0.00,,,0.00,,2013-02-21 20:01:00,
2013-02-21 12:11:00,54.0,43.0,30.12,WSW,252,5.0,7.0,65,0.00,,,0.00,,2013-02-21 20:11:00,
2013-02-21 12:21:00,54.0,43.0,30.12,WSW,252,5.0,7.0,65,0.00,,,0.00,,2013-02-21 20:21:00,
2013-02-21 12:31:00,55.0,42.0,30.11,West,260,4.0,4.0,62,0.00,,,0.00,,2013-02-21 20:31:00,
2013-02-21 12:41:00,55.0,42.0,30.11,West,260,4.0,4.0,62,0.00,,,0.00,,2013-02-21 20:41:00,
2013-02-21 12:52:00,55.0,42.0,30.11,West,260,4.0,8.0,61,0.00,,,0.00,,2013-02-21 20:52:00,
2013-02-21 13:02:00,56.0,42.0,30.11,WNW,297,4.0,4.0,60,0.00,,,0.00,,2013-02-21 21:02:00,
2013-02-21 13:11:00,56.0,42.0,30.11,WNW,297,4.0,4.0,60,0.00,,,0.00,,2013-02-21 21:11:00,
2013-02-21 13:21:00,56.0,42.0,30.11,WNW,297,4.0,4.0,60,0.00,,,0.00,,2013-02-21 21:21:00,
2013-02-21 13:31:00,56.0,42.0,30.11,WNW,297,4.0,4.0,60,0.00,,,0.00,,2013-02-21 21:31:00,
2013-02-21 13:41:00,57.0,42.0,30.10,NW,323,0.0,0.0,58,0.00,,,0.00,,2013-02-21 21:41:00,
2013-02-21 13:52:00,57.0,42.0,30.10,NW,323,0.0,0.0,58,0.00,,,0.00,,2013-02-21 21:52:00,
2013-02-21 14:01:00,57.0,42.0,30.10,NW,323,0.0,0.0,58,0.00,,,0.00,,2013-02-21 22:01:00,
2013-02-21 14:11:00,58.0,42.0,30.09,West,274,7.0,7.0,56,0.00,,,0.00,,2013-02-21 22:11:00,
2013-02-21 14:21:00,58.0,42.0,30.09,West,274,7.0,7.0,56,0.00,,,0.00,,2013-02-21 22:21:00,
2013-02-21 14:32:00,58.0,43.0,30.09,SW,224,4.0,12.0,57,0.00,,,0.00,,2013-02-21 22:32:00,
2013-02-21 14:42:00,58.0,43.0,30.09,SW,222,9.0,9.0,57,0.00,,,0.00,,2013-02-21 22:42:00,
2013-02-21 14:52:00,58.0,43.0,30.09,SW,222,9.0,9.0,57,0.00,,,0.00,,2013-02-21 22:52:00,
2013-02-21 15:01:00,58.0,43.0,30.09,SW,222,9.0,9.0,57,0.00,,,0.00,,2013-02-21 23:01:00,
2013-02-21 15:11:00,58.0,43.0,30.09,SW,222,9.0,9.0,57,0.00,,,0.00,,2013-02-21 23:11:00,
2013-02-21 15:21:00,58.0,43.0,30.09,SW,222,9.0,9.0,57,0.00,,,0.00,,2013-02-21 23:21:00,
2013-02-21 15:52:00,58.0,41.0,30.09,West,271,7.0,7.0,54,0.00,,,0.00,,2013-02-21 23:52:00,
2013-02-21 16:01:00,58.0,41.0,30.09,West,271,7.0,7.0,54,0.00,,,0.00,,2013-02-22 00:01:00,
2013-02-21 16:11:00,58.0,41.0,30.09,West,271,7.0,7.0,54,0.00,,,0.00,,2013-02-22 00:11:00,
2013-02-21 16:21:00,58.0,41.0,30.09,West,271,7.0,7.0,54,0.00,,,0.00,,2013-02-22 00:21:00,
2013-02-21 16:31:00,57.0,43.0,30.09,WSW,256,9.0,9.0,59,0.00,,,0.00,,2013-02-22 00:31:00,
2013-02-21 16:42:00,57.0,43.0,30.09,WSW,256,9.0,9.0,59,0.00,,,0.00,,2013-02-22 00:42:00,
2013-02-21 16:52:00,57.0,42.0,30.06,WSW,246,3.0,4.0,58,0.00,,,0.00,,2013-02-22 00:52:00,
2013-02-21 17:01:00,57.0,42.0,30.06,WSW,246,3.0,4.0,58,0.00,,,0.00,,2013-02-22 01:01:00,
2013-02-21 17:11:00,57.0,42.0,30.06,WSW,246,3.0,4.0,58,0.00,,,0.00,,2013-02-22 01:11:00,
2013-02-21 17:21:00,57.0,42.0,30.06,WSW,246,3.0,4.0,58,0.00,,,0.00,,2013-02-22 01:21:00,
2013-02-21 17:32:00,55.0,42.0,30.10,WSW,239,0.0,0.0,62,0.00,,,0.00,,2013-02-22 01:32:00,
2013-02-21 17:42:00,55.0,43.0,30.10,SW,225,1.0,0.0,64,0.00,,,0.00,,2013-02-22 01:42:00,
2013-02-21 17:52:00,55.0,43.0,30.10,SW,225,1.0,0.0,64,0.00,,,0.00,,2013-02-22 01:52:00,
2013-02-21 18:01:00,55.0,43.0,30.10,SW,225,1.0,0.0,64,0.00,,,0.00,,2013-02-22 02:01:00,
2013-02-21 18:11:00,55.0,43.0,30.11,SSW,200,0.0,0.0,65,0.00,,,0.00,,2013-02-22 02:11:00,
2013-02-21 18:21:00,55.0,43.0,30.11,SSW,200,0.0,0.0,65,0.00,,,0.00,,2013-02-22 02:21:00,
2013-02-21 18:31:00,55.0,44.0,30.12,SSW,200,0.0,0.0,66,0.00,,,0.00,,2013-02-22 02:31:00,
2013-02-21 18:42:00,55.0,44.0,30.12,SSW,200,0.0,0.0,66,0.00,,,0.00,,2013-02-22 02:42:00,
2013-02-21 18:52:00,55.0,44.0,30.12,SSW,200,0.0,0.0,66,0.00,,,0.00,,2013-02-22 02:52:00,
2013-02-21 19:01:00,54.0,43.0,30.12,SSE,149,0.0,0.0,66,0.00,,,0.00,,2013-02-22 03:01:00,
2013-02-21 19:11:00,54.0,43.0,30.12,SSE,149,0.0,0.0,66,0.00,,,0.00,,2013-02-22 03:11:00,
2013-02-21 19:21:00,54.0,43.0,30.12,SSE,149,0.0,0.0,66,0.00,,,0.00,,2013-02-22 03:21:00,
2013-02-21 19:31:00,53.0,43.0,30.08,SSE,149,0.0,0.0,68,0.00,,,0.00,,2013-02-22 03:31:00,
2013-02-21 19:42:00,53.0,43.0,30.08,SSE,149,0.0,0.0,68,0.00,,,0.00,,2013-02-22 03:42:00,
2013-02-21 19:52:00,53.0,43.0,30.08,SSE,149,0.0,0.0,68,0.00,,,0.00,,2013-02-22 03:52:00,
2013-02-21 20:01:00,53.0,43.0,30.08,SSE,149,0.0,0.0,68,0.00,,,0.00,,2013-02-22 04:01:00,
2013-02-21 20:11:00,52.0,43.0,30.14,ENE,70,0.0,0.0,70,0.00,,,0.00,,2013-02-22 04:11:00,
2013-02-21 20:21:00,52.0,43.0,30.14,ENE,70,0.0,0.0,70,0.00,,,0.00,,2013-02-22 04:21:00,
2013-02-21 20:32:00,51.0,42.0,30.11,ENE,70,0.0,0.0,70,0.00,,,0.00,,2013-02-22 04:32:00,
2013-02-21 20:42:00,51.0,42.0,30.13,ENE,70,0.0,0.0,71,0.00,,,0.00,,2013-02-22 04:42:00,
2013-02-21 20:51:00,51.0,42.0,30.13,ENE,70,0.0,0.0,71,0.00,,,0.00,,2013-02-22 04:51:00,
2013-02-21 21:01:00,51.0,42.0,30.15,ENE,70,0.0,0.0,71,0.00,,,0.00,,2013-02-22 05:01:00,
2013-02-21 21:11:00,51.0,42.0,30.15,ENE,70,0.0,0.0,71,0.00,,,0.00,,2013-02-22 05:11:00,
2013-02-21 21:21:00,51.0,42.0,30.15,ENE,70,0.0,0.0,71,0.00,,,0.00,,2013-02-22 05:21:00,
2013-02-21 21:32:00,50.0,41.0,30.16,ENE,70,0.0,0.0,72,0.00,,,0.00,,2013-02-22 05:32:00,
2013-02-21 21:41:00,50.0,42.0,30.16,ENE,70,0.0,0.0,73,0.00,,,0.00,,2013-02-22 05:41:00,
2013-02-21 21:52:00,50.0,42.0,30.16,ENE,70,0.0,0.0,73,0.00,,,0.00,,2013-02-22 05:52:00,
2013-02-21 22:01:00,50.0,42.0,30.16,ENE,70,0.0,0.0,73,0.00,,,0.00,,2013-02-22 06:01:00,
2013-02-21 22:11:00,49.0,41.0,30.16,ENE,70,0.0,0.0,74,0.00,,,0.00,,2013-02-22 06:11:00,
2013-02-21 22:21:00,49.0,41.0,30.16,ENE,70,0.0,0.0,74,0.00,,,0.00,,2013-02-22 06:21:00,
2013-02-21 22:31:00,49.0,41.0,30.16,ENE,70,0.0,0.0,74,0.00,,,0.00,,2013-02-22 06:31:00,
2013-02-21 22:42:00,49.0,41.0,30.16,ENE,70,0.0,0.0,74,0.00,,,0.00,,2013-02-22 06:42:00,
2013-02-21 22:51:00,49.0,41.0,30.17,ENE,70,0.0,0.0,74,0.00,,,0.00,,2013-02-22 06:51:00,
2013-02-21 23:01:00,49.0,41.0,30.17,ENE,70,0.0,0.0,74,0.00,,,0.00,,2013-02-22 07:01:00,
2013-02-21 23:11:00,48.0,40.0,30.18,ENE,70,0.0,0.0,75,0.00,,,0.00,,2013-02-22 07:11:00,
2013-02-21 23:21:00,48.0,40.0,30.18,ENE,70,0.0,0.0,75,0.00,,,0.00,,2013-02-22 07:21:00,
2013-02-21 23:31:00,48.0,40.0,30.18,ENE,70,0.0,0.0,75,0.00,,,0.00,,2013-02-22 07:31:00,
2013-02-21 23:42:00,47.0,40.0,30.19,ENE,70,0.0,0.0,76,0.00,,,0.00,,2013-02-22 07:42:00,
2013-02-21 23:51:00,47.0,40.0,30.19,ENE,70,0.0,0.0,76,0.00,,,0.00,,2013-02-22 07:51:00,